This is the latest recevied weather packets stored in our database for station/object YO8SDE-8. If no packets are shown the sender has not sent any weather packets the latest 10 day(s).
| Time | Temp. | Humidity | Pressure | Rain* | Wind** | Luminosity | Snow |
|---|---|---|---|---|---|---|---|
| 1777998360 | 26.67° C | 27% | 999 hPa | 0 mm | - | - | - |
| 1777998060 | 27.78° C | 26% | 999.1 hPa | 0 mm | - | - | - |
| 1777997760 | 28.33° C | 26% | 999 hPa | 0 mm | - | - | - |
| 1777997460 | 28.89° C | 25% | 999 hPa | 0 mm | - | - | - |
| 1777997160 | 29.44° C | 23% | 999.1 hPa | 0 mm | - | - | - |
| 1777996860 | 30° C | 22% | 999 hPa | 0 mm | - | - | - |
| 1777996560 | 30.56° C | 22% | 999.1 hPa | 0 mm | - | - | - |
| 1777996260 | 30.56° C | 22% | 999.2 hPa | 0 mm | - | - | - |
| 1777995960 | 30.56° C | 22% | 999.1 hPa | 0 mm | - | - | - |
| 1777995660 | 31.11° C | 21% | 998.8 hPa | 0 mm | - | - | - |
| 1777995360 | 31.67° C | 21% | 998.9 hPa | 0 mm | - | - | - |
| 1777995060 | 32.22° C | 20% | 999.2 hPa | 0 mm | - | - | - |
| 1777994760 | 32.22° C | 20% | 999.2 hPa | 0 mm | - | - | - |
| 1777994460 | 32.22° C | 19% | 999.2 hPa | 0 mm | - | - | - |
| 1777994160 | 32.78° C | 19% | 999.2 hPa | 0 mm | - | - | - |
| 1777993860 | 33.33° C | 19% | 999.1 hPa | 0 mm | - | - | - |
| 1777993560 | 33.33° C | 19% | 999.3 hPa | 0 mm | - | - | - |
| 1777993260 | 33.89° C | 18% | 999.3 hPa | 0 mm | - | - | - |
| 1777992960 | 33.89° C | 18% | 999.4 hPa | 0 mm | - | - | - |
| 1777992660 | 34.44° C | 18% | 999.3 hPa | 0 mm | - | - | - |
| 1777992360 | 34.44° C | 18% | 999.4 hPa | 0 mm | - | - | - |
| 1777992060 | 35° C | 18% | 999.5 hPa | 0 mm | - | - | - |
| 1777991760 | 34.44° C | 18% | 999.6 hPa | 0 mm | - | - | - |
| 1777991460 | 34.44° C | 18% | 999.7 hPa | 0 mm | - | - | - |
| 1777991160 | 34.44° C | 18% | 999.7 hPa | 0 mm | - | - | - |
* Rain latest hour (hover to see other rain measurements)
** Current wind speed in m/s (hover to see current wind gust speed)